Regional Weather Roundup
Issued by NWS

Home | Current Version | Previous Version | Graphics & Text | Print | Product List | Glossary On
Versions: 1 2 3 4 5 6 7 8 9 10 11 12 13 14 15 16 17 18 19 20 21 22 23 24 25 26 27 28 29 30 31 32 33 34 35 36 37 38 39 40 41 42 43 44 45 46 47 48 49 50
000
ASUS43 KMPX 180910
RWRMN
WEATHER ROUNDUP FOR MINNESOTA
NATIONAL WEATHER SERVICE TWIN CITIES/CHANHASSEN MN
300 AM CST SUN FEB 18 2018


NOTE: "FAIR" INDICATES FEW OR NO CLOUDS BELOW 12,000 FEET WITH NO
SIGNIFICANT WEATHER AND/OR OBSTRUCTIONS TO VISIBILITY. N/A MEANS
CURRENT SKY AND/OR WEATHER CONDITIONS ARE NOT AVAILABLE.

MNZ060>063-068>070-181000-
   Twin Cities Metro

CITY           SKY/WX    TMP DP  RH WIND       PRES   REMARKS
TWIN CITIES    CLOUDY    20  10  65 E5        30.09F WCI  13
ST PAUL        FAIR      17   9  70 CALM      30.12S
CRYSTAL        MOCLDY    15   8  73 CALM      30.08F
BLAINE         FAIR      18  10  73 CALM      30.09S
LAKEVILLE      FAIR      10   9  92 CALM      30.08F
EDEN PRAIRIE   MOCLDY    17   7  64 E5        30.07F WCI  10
SOUTH ST PAUL  FAIR      18   8  62 CALM      30.11S
LAKE ELMO      FAIR      12   7  79 CALM      30.11F
$$
MNZ001>005-007-008-013>017-022>024-027-028-181000-
   Northwest Minnesota

CITY           SKY/WX    TMP DP  RH WIND       PRES   REMARKS
BEMIDJI        FAIR       5   1  84 CALM      29.96S
HALLOCK        FAIR       1  -2  85 SE9       29.96F WCI -14
WARROAD        FAIR       0  -6  78 S3        29.97F
THIEF RVR FALL MOCLDY     7   1  76 E7        29.96F WCI  -5
CROOKSTON      FAIR      10   3  72 E6        29.97F WCI   1
FOSSTON        FAIR       7   0  72 E3        29.96F
DETROIT LAKES  FAIR      12   9  85 CALM      29.95F
MOORHEAD       FAIR      16  10  79 E5        29.95F WCI   9
PARK RAPIDS    MOCLDY     9   3  77 CALM      29.95F
MAHNOMEN       CLOUDY    11   7  83 SE3       29.95F
$$
MNZ006-009>011-018-025>026-181000-
   North Central Minnesota

CITY           SKY/WX    TMP DP  RH WIND       PRES   REMARKS
BAUDETTE       FAIR       0  -7  72 CALM      29.97S
FLAG ISLAND    FAIR      -8 -13  77 SE5       29.97F WCI -19
INTL FALLS     FAIR      -8 -12  83 CALM      29.98S
WASKISH        CLOUDY     3   0  85 CALM      29.99R
BIG FORK       CLOUDY     3   0  85 CALM      29.98R
LONGVILLE      CLOUDY     7   1  78 CALM      29.99S
GRAND RAPIDS   CLOUDY     8   2  76 S5        30.02R WCI   0
CRANE LAKE     FAIR      -4  -8  84 CALM      30.02S
ORR            FAIR      -2  -8  78 CALM      29.96R
COOK           CLOUDY     0  -4  85 CALM      30.00R
WALKER         CLOUDY    10   3  74 CALM      29.98S
$$
MNZ012-019>021-037-181000-
   Northeast Minnesota

CITY           SKY/WX    TMP DP  RH WIND       PRES   REMARKS
DULUTH         FAIR      11   2  67 SW7       30.00R WCI   0
ELY            FAIR       0  -4  85 CALM      29.97F
HIBBING        FAIR      -1  -5  82 CALM      30.00R
EVELETH        FAIR     N/A N/A N/A CALM      30.00R
DULUTH HARBOR  FAIR      16   7  67 SW9       30.08R WCI   4
TWO HARBORS    FAIR       7   0  72 W3        30.01R
GRAND MARAIS     N/A      6   0  76 NW3       30.04R
G MARAIS ARPRT FAIR       1  -4  78 W5        29.93F WCI  -8
$$
MNZ029>031-032-039>041-046>048-054>057-064-181000-
   West Central Minnesota

CITY           SKY/WX    TMP DP  RH WIND       PRES   REMARKS
FERGUS FALLS   CLOUDY    18   9  68 SE8       29.95F WCI   7
WHEATON        CLOUDY    19   9  63 E12       29.93F WCI   7
MORRIS         CLOUDY    19   7  58 E10       29.94F WCI   8
ALEXANDRIA     CLOUDY    18   7  62 SE9       29.97F WCI   7
ELBOW LAKE     CLOUDY    18   8  64 SE8       29.96F WCI   8
WADENA         CLOUDY    12   7  79 CALM      29.95F
GLENWOOD       FAIR      18   9  68 SE7       29.99S WCI   8
APPLETON       CLOUDY    21  12  68 E7        29.95F WCI  13
BENSON         CLOUDY    21   7  53 SE7       29.98F WCI  13
ORTONVILLE     CLOUDY    19  12  73 E10       29.89F WCI   8
MADISON        CLOUDY    25  18  74 E10       29.93F WCI  15
WILLMAR        FAIR      19   9  63 E9        30.00F WCI   9
$$
MNZ033>034-036-042>043-049>051-058-059-181000-
   Central Minnesota

CITY           SKY/WX    TMP DP  RH WIND       PRES   REMARKS
ST CLOUD       CLOUDY    15   7  70 SE5       30.04F WCI   8
SAUK CENTRE    CLOUDY    17   8  70 SE6       30.01F WCI   8
PAYNESVILLE    CLOUDY    19   9  65 SE8       30.01F WCI   9
AITKIN         FAIR      10   3  72 S6        30.01F WCI   1
PINE RIVER     FAIR       7   1  78 CALM      30.02F
BRAINERD       MOCLDY    13   3  64 SE6       30.01F WCI   4
STAPLES        CLOUDY    10   3  72 SE5       29.98F WCI   2
LONG PRAIRIE   FAIR      16   9  73 E5        29.99F WCI   9
LITTLE FALLS   CLOUDY    14   3  62 CALM      30.02F
LITCHFIELD     CLOUDY    19  12  73 E5        30.02F WCI  13
BUFFALO        MOCLDY    17  10  73 E3        30.06F
MAPLE LAKE     CLOUDY    17  12  78 CALM      30.05F
HUTCHINSON     CLOUDY    20  13  72 E6        30.01F WCI  13
$$
MNZ037-044-045-052-053-181000-
   East Central Minnesota

CITY           SKY/WX    TMP DP  RH WIND       PRES   REMARKS
PRINCETON      FAIR      16   9  73 CALM      30.07F
MORA           FAIR      10   3  72 CALM      30.10R
CAMBRIDGE        N/A     16   5  62 CALM      30.09S
RUSH CITY      CLOUDY    10   5  80 CALM      30.10R
MOOSE LAKE     FAIR       7   1  78 CALM      30.04R
HINCKLEY       FAIR       9   5  85 CALM      30.08S
CLOQUET        FAIR      10   1  67 SW5       30.01S WCI   2
MCGREGOR       FAIR      12   5  73 S5        30.03S WCI   4
$$
MNZ071>073-080-081-089-090-097-098-181000-
   Southwest Minnesota

CITY           SKY/WX    TMP DP  RH WIND       PRES   REMARKS
MONTEVIDEO     CLOUDY    21  14  73 SE7       29.96F WCI  13
GRANITE FALLS  CLOUDY    23  18  80 E5        29.99F WCI  17
CANBY          CLOUDY    24  20  84 SE9       29.92F WCI  15
MARSHALL       CLOUDY    23  19  85 SE10      29.94F WCI  12
REDWOOD FALLS  CLOUDY    20  16  84 E5        29.98F WCI  13
OLIVIA         CLOUDY    23  16  74 SE7       29.99F WCI  15
PIPESTONE      PTCLDY    19  18  93 SE14G21   29.87F WCI   6
WINDOM         PTCLDY    18   7  62 SE3       29.98F
WORTHINGTON    CLOUDY    19  18  95 SE10      29.93F WCI   7
JACKSON        PTCLDY    18  16  93 SE3       29.98F
TRACY          CLOUDY    23  20  90 S9        29.95F WCI  13
SLAYTON        CLOUDY    19  17  95 SE10      29.92F WCI   7
$$
MNZ065>067-074>077-082>085-091>093-181000-
   South Central Minnesota

CITY           SKY/WX    TMP DP  RH WIND       PRES   REMARKS
NEW ULM        CLOUDY    18  12  79 E5        30.01F WCI  11
ST JAMES       CLOUDY    18  14  86 SE6       30.02F WCI   9
FAIRMONT       CLOUDY    15  13  91 E7        30.01F WCI   5
GLENCOE        CLOUDY    19  13  77 E7        30.01F WCI  10
FARIBAULT      FAIR      10   9  92 CALM      30.06F
OWATONNA       FAIR      12  10  92 SE5       30.06F WCI   4
WASECA         MOCLDY    14  12  92 E7        30.06F WCI   4
ALBERT LEA     FAIR      18  16  93 CALM      30.05F
$$
MNZ078>079-086>088-094>096-181000-
   Southeast Minnesota

CITY           SKY/WX    TMP DP  RH WIND       PRES   REMARKS
ROCHESTER      FAIR      14  13  95 S6        30.08S FOG     WCI   5
RED WING       FAIR      10   3  72 CALM      30.12S
STANTON        FAIR       8   4  82 NE5       30.07F WCI  -1
DODGE CENTER   FAIR      10   9  92 SE3       30.06F
WINONA         FAIR      10   9  92 CALM      30.14R
AUSTIN         CLOUDY    10   7  85 SE3       30.07F
PRESTON        FAIR      16  13  90 CALM      30.11S FOG
$$
ABBREVIATIONS USED IN REMARKS
   TC - TEMPERATURES IN CELSIUS
  WCI - WIND CHILL INDEX
   HX - HEAT INDEX
  VSB - VISIBILITY
$$




USA.gov is the U.S. government's official web portal to all federal, state and local government web resources and services.